TimeEST,TemperatureF,Dew PointF,Humidity,Sea Level PressureIn,VisibilityMPH,Wind Direction,Wind SpeedMPH,Gust SpeedMPH,PrecipitationIn,Events,Conditions,WindDirDegrees,DateUTC
12:15 AM,47.7,47.7,100,30.24,4.0,West,5.8,-,N/A,,Overcast,270,2013-01-29 05:15:00
12:35 AM,48.2,48.2,100,30.24,4.0,West,6.9,-,N/A,,Overcast,260,2013-01-29 05:35:00
12:55 AM,48.2,48.2,100,30.23,3.0,West,8.1,-,N/A,,Overcast,260,2013-01-29 05:55:00
1:15 AM,48.2,48.2,100,30.24,3.0,West,8.1,-,N/A,,Overcast,260,2013-01-29 06:15:00
1:35 AM,47.8,47.8,100,30.23,4.0,WSW,5.8,-,N/A,,Overcast,250,2013-01-29 06:35:00
1:55 AM,47.8,47.8,100,30.23,4.0,West,8.1,-,N/A,,Overcast,270,2013-01-29 06:55:00
2:15 AM,48.2,48.2,100,30.23,3.0,WSW,6.9,-,N/A,,Overcast,250,2013-01-29 07:15:00
2:35 AM,47.8,47.8,100,30.23,2.5,West,8.1,-,N/A,,Overcast,260,2013-01-29 07:35:00
2:55 AM,48.2,48.2,100,30.23,2.5,WSW,5.8,-,N/A,,Overcast,240,2013-01-29 07:55:00
3:15 AM,47.8,47.8,100,30.23,2.5,WSW,8.1,-,N/A,,Overcast,250,2013-01-29 08:15:00
3:35 AM,48.2,48.2,100,30.23,2.5,WSW,5.8,-,N/A,,Overcast,250,2013-01-29 08:35:00
3:55 AM,48.0,48.0,100,30.22,2.0,West,9.2,-,N/A,,Overcast,260,2013-01-29 08:55:00
4:15 AM,47.8,47.8,100,30.23,2.0,West,8.1,-,N/A,,Overcast,270,2013-01-29 09:15:00
4:35 AM,48.2,48.2,100,30.22,2.0,WNW,5.8,-,N/A,,Drizzle,290,2013-01-29 09:35:00
4:55 AM,48.4,48.4,100,30.23,2.5,West,6.9,-,0.01,Rain,Light Rain,280,2013-01-29 09:55:00
5:15 AM,48.6,48.6,100,30.23,3.0,WNW,9.2,-,N/A,,Overcast,290,2013-01-29 10:15:00
5:35 AM,48.6,48.6,100,30.22,2.5,West,8.1,-,N/A,,Overcast,280,2013-01-29 10:35:00
5:55 AM,49.1,49.1,100,30.22,3.0,WNW,9.2,-,N/A,,Overcast,290,2013-01-29 10:55:00
6:15 AM,49.3,49.3,100,30.22,5.0,WSW,8.1,-,N/A,,Overcast,240,2013-01-29 11:15:00
6:35 AM,48.6,48.6,100,30.22,2.5,West,8.1,-,N/A,,Overcast,260,2013-01-29 11:35:00
6:55 AM,47.3,47.3,100,30.22,0.8,WSW,9.2,-,N/A,,Overcast,250,2013-01-29 11:55:00
7:15 AM,46.6,46.6,100,30.22,0.2,West,9.2,-,N/A,Fog,Fog,260,2013-01-29 12:15:00
7:35 AM,45.9,45.9,100,30.22,0.2,West,8.1,-,N/A,Fog,Fog,260,2013-01-29 12:35:00
7:55 AM,46.0,46.0,100,30.23,0.2,West,9.2,-,N/A,Fog,Fog,270,2013-01-29 12:55:00
8:15 AM,47.1,47.1,100,30.23,0.2,West,9.2,-,N/A,Fog,Fog,260,2013-01-29 13:15:00
8:35 AM,49.1,49.1,100,30.23,2.0,WSW,6.9,-,N/A,,Overcast,250,2013-01-29 13:35:00
8:55 AM,49.3,49.3,100,30.22,3.0,WSW,6.9,-,N/A,,Scattered Clouds,240,2013-01-29 13:55:00
9:15 AM,51.3,51.1,99,30.22,7.0,WSW,8.1,-,N/A,,Clear,250,2013-01-29 14:15:00
9:35 AM,53.2,51.6,94,30.23,10.0,WSW,8.1,-,N/A,,Clear,250,2013-01-29 14:35:00
9:55 AM,55.0,51.8,89,30.23,10.0,WSW,8.1,-,N/A,,Clear,250,2013-01-29 14:55:00
10:15 AM,55.9,51.8,86,30.23,10.0,West,11.5,-,N/A,,Clear,260,2013-01-29 15:15:00
10:35 AM,57.2,51.3,81,30.23,10.0,West,12.7,-,N/A,,Clear,260,2013-01-29 15:35:00
10:55 AM,58.5,51.3,77,30.22,10.0,West,11.5,-,N/A,,Clear,260,2013-01-29 15:55:00
11:15 AM,59.9,51.3,73,30.21,10.0,West,16.1,20.7,N/A,,Clear,260,2013-01-29 16:15:00
11:35 AM,60.8,50.4,68,30.21,10.0,WSW,13.8,-,N/A,,Clear,250,2013-01-29 16:35:00
11:55 AM,61.9,49.5,64,30.20,10.0,West,15.0,21.9,N/A,,Clear,260,2013-01-29 16:55:00
12:15 PM,61.7,49.8,65,30.20,10.0,SW,9.2,-,N/A,,Scattered Clouds,230,2013-01-29 17:15:00
12:35 PM,62.4,49.5,63,30.19,10.0,Calm,Calm,-,N/A,,Overcast,0,2013-01-29 17:35:00
12:55 PM,64.9,49.3,57,30.18,10.0,SW,5.8,-,N/A,,Overcast,220,2013-01-29 17:55:00
1:15 PM,65.5,48.7,55,30.16,10.0,SW,10.4,-,N/A,,Overcast,220,2013-01-29 18:15:00
1:35 PM,65.8,49.1,55,30.15,10.0,WSW,12.7,-,N/A,,Mostly Cloudy,250,2013-01-29 18:35:00
1:55 PM,67.1,49.1,52,30.14,10.0,WSW,11.5,17.3,N/A,,Scattered Clouds,250,2013-01-29 18:55:00
2:15 PM,67.1,48.6,51,30.12,10.0,West,12.7,-,N/A,,Clear,270,2013-01-29 19:15:00
2:35 PM,66.4,48.6,53,30.12,10.0,West,10.4,-,N/A,,Clear,270,2013-01-29 19:35:00
2:55 PM,67.3,47.8,50,30.11,10.0,WSW,6.9,-,N/A,,Clear,250,2013-01-29 19:55:00
3:15 PM,68.2,47.5,47,30.11,10.0,WSW,8.1,-,N/A,,Clear,240,2013-01-29 20:15:00
3:35 PM,67.3,48.2,50,30.10,10.0,WSW,8.1,-,N/A,,Clear,240,2013-01-29 20:35:00
3:55 PM,66.2,49.1,54,30.10,10.0,WSW,9.2,-,N/A,,Clear,250,2013-01-29 20:55:00
4:15 PM,66.2,49.5,55,30.09,10.0,West,10.4,-,N/A,,Clear,270,2013-01-29 21:15:00
4:35 PM,65.3,49.5,57,30.09,10.0,WSW,6.9,-,N/A,,Clear,250,2013-01-29 21:35:00
4:55 PM,64.0,49.5,59,30.09,10.0,West,9.2,-,N/A,,Clear,270,2013-01-29 21:55:00
5:15 PM,63.5,48.7,59,30.09,10.0,WSW,9.2,-,N/A,,Clear,240,2013-01-29 22:15:00
5:35 PM,63.0,48.2,59,30.09,10.0,WSW,6.9,-,N/A,,Clear,240,2013-01-29 22:35:00
5:55 PM,61.0,48.2,63,30.08,10.0,Calm,Calm,-,N/A,,Clear,0,2013-01-29 22:55:00
6:15 PM,61.3,47.5,60,30.07,10.0,Calm,Calm,-,N/A,,Clear,0,2013-01-29 23:15:00
6:35 PM,58.6,46.8,65,30.07,10.0,Calm,Calm,-,N/A,,Clear,0,2013-01-29 23:35:00
6:55 PM,59.5,46.4,62,30.07,10.0,Calm,Calm,-,N/A,,Clear,0,2013-01-29 23:55:00
7:15 PM,59.5,46.8,63,30.07,10.0,Calm,Calm,-,N/A,,Clear,0,2013-01-30 00:15:00
7:35 PM,59.5,48.7,67,30.07,10.0,Calm,Calm,-,N/A,,Clear,0,2013-01-30 00:35:00
7:55 PM,57.6,48.7,72,30.07,10.0,Calm,Calm,-,N/A,,Clear,0,2013-01-30 00:55:00
8:15 PM,59.4,49.8,71,30.07,10.0,NNE,3.5,-,N/A,,Clear,30,2013-01-30 01:15:00
8:35 PM,61.5,52.3,72,30.07,10.0,West,5.8,-,N/A,,Clear,260,2013-01-30 01:35:00
8:55 PM,60.6,52.0,73,30.08,10.0,Calm,Calm,-,N/A,,Clear,0,2013-01-30 01:55:00
9:15 PM,60.6,52.0,73,30.08,10.0,Calm,Calm,-,N/A,,Clear,0,2013-01-30 02:15:00
9:55 PM,59.4,51.6,76,30.06,10.0,Calm,Calm,-,N/A,,Clear,0,2013-01-30 02:55:00
10:15 PM,62.4,52.7,70,30.05,10.0,WSW,3.5,-,N/A,,Clear,240,2013-01-30 03:15:00
10:35 PM,62.1,53.2,73,30.05,10.0,South,3.5,-,N/A,,Clear,170,2013-01-30 03:35:00
10:55 PM,60.1,52.7,77,30.04,10.0,Calm,Calm,-,N/A,,Scattered Clouds,0,2013-01-30 03:55:00
11:15 PM,58.8,52.5,80,30.04,10.0,Calm,Calm,-,N/A,,Scattered Clouds,0,2013-01-30 04:15:00
11:35 PM,59.0,52.3,79,30.02,10.0,Calm,Calm,-,N/A,,Scattered Clouds,0,2013-01-30 04:35:00
11:55 PM,59.2,53.4,81,30.02,10.0,NNW,3.5,-,N/A,,Scattered Clouds,340,2013-01-30 04:55:00